Regional Weather Roundup
Issued by NWS

Home | Current Version | Previous Version | Graphics & Text | Print | Product List | Glossary On
Versions: 1 2 3 4 5 6 7 8 9 10 11 12 13 14 15 16 17 18 19 20 21 22 23 24 25 26 27 28 29 30 31 32 33 34 35 36 37 38 39 40 41 42 43 44 45 46 47 48 49 50
000
ASUS43 KBIS 250510
RWRND

NORTH DAKOTA REGIONAL WEATHER ROUNDUP
NATIONAL WEATHER SERVICE BISMARCK ND
1200 AM CDT MON SEP 25 2017

NOTE: "FAIR" INDICATES FEW OR NO CLOUDS BELOW 12,000 FEET WITH NO
SIGNIFICANT WEATHER AND/OR OBSTRUCTIONS TO VISIBILITY.


NDZ001>003-009>011-017-250600-
NORTHWEST NORTH DAKOTA

CITY           SKY/WX    TMP DP  RH WIND       PRES   REMARKS
WILLISTON      CLOUDY    46  43  89 SW5       30.13F
MINOT          MOCLDY    48  45  89 W7        30.10S
MINOT AFB      CLOUDY    46  44  94 NW7       30.09S
$$

NDZ018>021-031>035-040>046-250600-
SOUTHWEST NORTH DAKOTA

CITY           SKY/WX    TMP DP  RH WIND       PRES   REMARKS
BISMARCK       CLOUDY    47  46  97 NW3       30.12R
DICKINSON      CLOUDY    44  42  93 NW3       30.12R
GARRISON         N/A     45  45 100 NW6       30.11R
HETTINGER ARPT CLOUDY    44  41  89 NW5       30.15R
$$

NDZ004>008-012>016-024-026-027-054-250600-
NORTHEAST NORTH DAKOTA

CITY           SKY/WX    TMP DP  RH WIND       PRES   REMARKS
GRAND FORKS    CLOUDY    51  51 100 NW9       30.01S
GRND FRKS AFB  CLOUDY    50  50 100 N9        30.04R
DEVILS LAKE    MOCLDY    47  45  93 NW12      30.07S
$$

NDZ022-023-025-028>030-036>039-047>053-250600-
SOUTHEAST NORTH DAKOTA

CITY           SKY/WX    TMP DP  RH WIND       PRES   REMARKS
FARGO          CLOUDY    51  51 100 NW8       30.01S
JAMESTOWN      MOCLDY    48  46  93 NW8       30.06S
$$




USA.gov is the U.S. government's official web portal to all federal, state and local government web resources and services.